Milwaukee, WI

10:14 PM CST on February 27, 2017 (GMT -0600)
Gen Mitchell International

Weather History for KMKE - January, 2012

Change the Weather History Date:

Friday, January 13, 2012

  Actual Average Record
Temperature  
Mean Temperature 20 °F 22 °F  
Max Temperature 22 °F 29 °F 55 °F (1961)
Min Temperature 18 °F 15 °F -18 °F (1929)
Degree Days  
Heating Degree Days 45 43  
Month to date heating degree days 434 554  
Since 1 July heating degree days 2586 3114  
Cooling Degree Days 0 0  
Month to date cooling degree days 0 0  
Year to date cooling degree days 0 0  
Moisture  
Dew Point 13 °F    
Average Humidity 74    
Maximum Humidity 80    
Minimum Humidity 67    
Precipitation  
Precipitation 0.05 in 0.06 in 1.32 in (1979)
Month to date precipitation 0.52 0.78  
Year to date precipitation 0.52 0.78  
Snow  
Snow 0.60 in 0.60 in 12.40 in (1979)
Month to date snowfall 7.2 6.3  
Since 1 July snowfall 8.4 19.6  
Snow Depth 6.00 in    
Sea Level Pressure  
Sea Level Pressure 29.79 in    
Wind  
Wind Speed 11 mph (WNW)    
Max Wind Speed 20 mph    
Max Gust Speed 29 mph    
Visibility 6 miles    
Events Snow    
T = Trace of Precipitation, MM = Missing Value Source: NWS Daily Summary

Daily Weather History Graph

Daily Weather History Graph

Search for Another Location

Airport or City:

Trip Planner

Search our weather history database for the weather conditions in past years. The results will help you decide how hot, cold, wet, or windy it might be!

Date:

Astronomy

Jan. 13, 2012 Rise Set
Actual Time 7:20 AM CST 4:39 PM CST
Civil Twilight 6:49 AM CST 5:11 PM CST
Nautical Twilight 6:14 AM CST 5:46 PM CST
Astronomical Twilight 5:40 AM CST 6:20 PM CST
Moon 10:01 PM CST (1/13) 9:26 AM CST (1/13)
Length of Visible Light 10h 21m
Length of Day
9h 18m
Waning Gibbous, 78% of the Moon is Illuminated
Jan 13
Waning Gibbous
Jan 16
Last Quarter
Jan 23
New
Jan 30
First Quarter
Feb 7
Full

Hourly Weather History & Observations

Time (CST) Temp. Windchill Dew Point Humidity Pressure Visibility Wind Dir Wind Speed Gust Speed Precip Events Conditions
12:10 AM 19.4 °F 5.5 °F 15.8 °F 86% 29.52 in 2.0 mi NW 15.0 mph 24.2 mph 0.00 in Snow Light Snow
12:22 AM 19.4 °F 4.1 °F 14.0 °F 80% 29.52 in 4.0 mi NW 18.4 mph 28.8 mph 0.00 in Snow Light Snow
12:52 AM 19.0 °F 5.6 °F 12.9 °F 77% 29.56 in 5.0 mi NW 13.8 mph 23.0 mph 0.00 in Snow Light Snow
1:31 AM 19.4 °F 4.5 °F 12.2 °F 74% 29.54 in 2.5 mi NW 17.3 mph - 0.01 in Snow Light Snow
1:52 AM 19.0 °F 6.1 °F 12.9 °F 77% 29.59 in 1.5 mi NW 12.7 mph 23.0 mph 0.01 in Snow Light Snow
2:37 AM 19.4 °F 4.5 °F 12.2 °F 74% 29.57 in 1.5 mi NW 17.3 mph 21.9 mph 0.00 in Snow Light Snow
2:52 AM 19.0 °F 5.0 °F 14.0 °F 81% 29.61 in 1.5 mi NW 15.0 mph 24.2 mph 0.01 in Snow Light Snow
3:17 AM 19.4 °F 4.5 °F 12.2 °F 74% 29.59 in 5.0 mi NW 17.3 mph 21.9 mph 0.00 in Snow Light Snow
3:52 AM 19.0 °F 5.6 °F 14.0 °F 81% 29.63 in 3.0 mi NW 13.8 mph 19.6 mph 0.01 in Snow Light Snow
4:52 AM 19.9 °F 7.3 °F 14.0 °F 78% 29.65 in 3.0 mi WNW 12.7 mph - 0.00 in Snow Light Snow
5:52 AM 19.9 °F 7.3 °F 14.0 °F 78% 29.69 in 6.0 mi NW 12.7 mph 20.7 mph 0.00 in Snow Light Snow
6:35 AM 19.4 °F 6.6 °F 12.2 °F 74% 29.67 in 2.5 mi WNW 12.7 mph - 0.00 in Snow Light Snow
6:52 AM 18.0 °F 4.2 °F 12.9 °F 81% 29.71 in 3.0 mi WNW 13.8 mph 21.9 mph 0.00 in Snow Light Snow
7:52 AM 18.0 °F 3.6 °F 12.0 °F 78% 29.75 in 9.0 mi WNW 15.0 mph 21.9 mph 0.01 in   Mostly Cloudy
8:52 AM 19.9 °F 7.3 °F 12.0 °F 71% 29.78 in 10.0 mi NW 12.7 mph - N/A   Mostly Cloudy
9:52 AM 21.0 °F 9.3 °F 12.9 °F 71% 29.81 in 9.0 mi WNW 11.5 mph - N/A   Overcast
10:52 AM 21.0 °F 10.6 °F 14.0 °F 74% 29.83 in 7.0 mi NW 9.2 mph 18.4 mph 0.01 in Snow Light Snow
11:21 AM 21.2 °F 7.8 °F 14.0 °F 74% 29.80 in 3.0 mi WNW 15.0 mph - 0.00 in Snow Light Snow
11:30 AM 21.2 °F 8.3 °F 14.0 °F 74% 29.80 in 2.5 mi WNW 13.8 mph 20.7 mph 0.00 in Snow Light Snow
11:38 AM 21.2 °F 9.5 °F 14.0 °F 74% 29.80 in 2.5 mi NW 11.5 mph - 0.00 in Snow Light Snow
11:52 AM 21.9 °F 10.4 °F 14.0 °F 72% 29.84 in 5.0 mi WNW 11.5 mph - 0.00 in Snow Light Snow
12:15 PM 21.2 °F 9.5 °F 14.0 °F 74% 29.81 in 6.0 mi WNW 11.5 mph - 0.00 in Snow Light Snow
12:52 PM 21.9 °F 9.8 °F 14.0 °F 72% 29.86 in 7.0 mi WNW 12.7 mph 18.4 mph 0.00 in Snow Light Snow
1:52 PM 21.9 °F 9.2 °F 14.0 °F 72% 29.88 in 9.0 mi WNW 13.8 mph - 0.00 in Snow Light Snow
2:52 PM 21.9 °F 10.4 °F 12.9 °F 68% 29.91 in 7.0 mi WNW 11.5 mph - 0.00 in Snow Light Snow
3:16 PM 21.2 °F 10.1 °F 12.2 °F 68% 29.88 in 9.0 mi WNW 10.4 mph - 0.00 in Snow Light Snow
3:52 PM 21.9 °F 10.4 °F 12.9 °F 68% 29.94 in 9.0 mi WNW 11.5 mph - 0.00 in   Overcast
4:52 PM 21.9 °F 12.5 °F 12.9 °F 68% 29.97 in 8.0 mi West 8.1 mph - 0.00 in Snow Light Snow
5:07 PM 21.2 °F 10.9 °F 12.2 °F 68% 29.94 in 9.0 mi West 9.2 mph - 0.00 in Snow Light Snow
5:52 PM 21.0 °F 10.6 °F 12.9 °F 71% 29.99 in 9.0 mi WNW 9.2 mph - 0.00 in   Overcast
6:52 PM 21.0 °F 12.4 °F 12.9 °F 71% 30.01 in 9.0 mi West 6.9 mph - 0.00 in Snow Light Snow
7:52 PM 21.9 °F 11.7 °F 12.9 °F 68% 30.02 in 9.0 mi WNW 9.2 mph - 0.00 in Snow Light Snow
8:52 PM 19.9 °F 9.3 °F 12.0 °F 71% 30.03 in 9.0 mi West 9.2 mph - 0.00 in Snow Light Snow
9:52 PM 19.9 °F 9.3 °F 10.9 °F 68% 30.03 in 9.0 mi WNW 9.2 mph - 0.00 in   Overcast
10:52 PM 19.0 °F 11.1 °F 10.9 °F 71% 30.04 in 10.0 mi West 5.8 mph - N/A   Overcast
11:52 PM 18.0 °F 8.7 °F 10.0 °F 71% 30.04 in 10.0 mi WNW 6.9 mph - N/A   Overcast